Location: Bailleul
(50.3375°N, 2.8513°E)
Time: 21:15:08
(UTC+00:00)

Cosmos 1356 - Pass Details

Date: 19 April 2021
Orbit: 438 x 442 km, 81.1° (Epoch: 18 May)

Event Time Altitude Azimuth Distance (km) Brightness Sun altitude
Rises 20:19:53 0° 344° (NNW) 2,451 8.1 -13.4°
Reaches altitude 10° 20:21:58 10° 341° (NNW) 1,575 7.0 -13.7°
Maximum altitude 20:25:22 61° 261° (W) 512 3.8 -14.1°
Enters shadow 20:28:04 15° 183° (S) 1,294 5.4 -14.5°
